Torna al catalogo

THOR ABLESTAR DEB

AttivoLEO
NORAD 643·DEBRIS·🇺🇸 United States

Lanciato Jun 29, 1961 da Cape Canaveral Space Force Station

Loading…

Prossimi Passaggi (prossime 24 ore)

TLE

AggiornatoSource: Space-Track

Epoca: Sep 13, 2026, 22:34 UTC

1 00643U 61015GU  26256.94047092  .00000889  00000-0  13679-2 0  9995
2 00643  66.3698 215.8502 0322215 347.1306  12.1655 13.36998251121860

Traccia THOR ABLESTAR DEB in tempo reale con AllMySat

Download on the App Store